Theta_e
332 332 332 331 330 329 328 327 327 328 328 329 328 329 330 329 328 331 331 327 322 324 329 335 337 340 342 340 341 340 337 338 335 335 333 331 331 330 332 335 335 334 334
332 333 332 331 331 330 329 328 328 327 327 328 329 330 330 328 329 331 331 327 320 323 327 328 335 340 341 340 341 338 337 335 334 331 328 327 326 326 330 335 334 333 330
333 333 332 331 331 330 330 329 327 327 327 327 329 330 330 330 330 330 330 325 325 328 327 325 332 338 341 340 339 338 336 334 333 330 328 329 327 328 334 334 331 329 325
333 333 333 332 331 330 330 328 327 327 327 327 329 329 329 330 330 329 325 324 326 328 329 325 332 335 341 340 338 336 334 334 330 329 328 327 327 333 333 330 328 326 326
333 333 332 330 332 329 329 329 328 327 327 328 329 329 329 329 329 325 323 326 331 331 329 334 335 336 340 341 338 335 334 332 330 329 327 328 333 333 329 327 326 325 325
334 333 332 333 327 327 328 328 328 327 327 328 328 329 328 328 327 325 326 330 333 333 333 336 339 338 338 341 339 336 334 332 330 327 329 332 332 327 325 325 326 325 324
333 332 332 328 327 328 326 327 327 328 327 328 329 329 329 329 327 326 329 333 334 334 336 337 339 337 338 334 339 337 334 331 330 329 330 331 326 325 324 325 324 321 321
332 332 331 330 328 324 326 326 328 327 327 328 328 328 332 329 329 331 331 333 333 334 336 338 335 326 325 324 335 335 334 333 331 329 330 325 325 324 325 321 317 322 322
332 332 331 328 327 326 327 328 328 327 328 329 329 329 332 329 329 331 332 333 334 334 336 338 336 333 333 330 329 325 334 332 330 329 325 325 323 324 319 319 323 321 318
331 331 329 329 328 328 329 329 328 328 328 329 330 329 329 328 328 336 333 333 334 335 337 337 336 335 335 331 327 330 332 330 328 328 325 322 324 323 320 322 318 316 319
331 329 330 329 328 329 329 328 327 328 329 330 328 331 329 327 330 334 336 333 333 333 334 335 335 334 334 335 335 334 331 330 326 325 324 325 323 326 320 319 321 321 321
331 330 329 329 329 329 328 328 328 328 330 331 330 329 331 329 329 332 337 334 333 332 333 334 333 333 334 333 333 331 330 327 326 324 323 324 325 322 323 324 323 322 322
331 330 330 329 329 329 329 329 329 329 330 331 330 329 330 329 331 332 332 333 332 330 330 331 331 331 331 331 331 328 324 323 324 323 324 324 323 323 323 323 323 323 323
330 330 330 330 330 330 329 329 330 330 330 331 330 328 329 330 330 333 332 332 332 331 330 330 329 330 329 326 323 322 324 323 324 324 325 325 324 322 320 320 320 322 321
329 330 330 330 330 330 330 331 331 330 330 331 331 330 329 330 332 334 332 331 332 333 332 330 329 327 326 324 325 325 324 324 324 321 326 325 322 320 319 317 320 320 318
329 330 330 330 330 331 331 331 331 331 331 330 324 325 331 333 334 332 332 331 330 331 333 329 328 327 327 326 324 324 323 323 322 323 321 323 321 319 318 318 317 316 315
329 330 330 331 331 331 331 332 331 331 331 331 331 332 332 332 331 332 331 329 327 329 330 328 328 326 325 324 325 324 324 323 325 323 319 319 315 319 315 316 316 315 314
329 329 329 330 330 330 331 331 330 331 331 331 331 331 332 331 331 330 331 331 330 329 328 328 327 326 326 325 325 325 324 322 320 321 320 319 320 318 317 316 315 314 313
329 329 329 330 329 330 331 330 330 329 330 330 331 330 332 332 328 327 328 332 330 328 328 328 327 326 326 325 325 324 323 321 320 316 318 318 317 316 316 314 314 314 313
330 329 329 329 330 329 329 329 329 330 330 331 330 331 331 330 326 327 329 330 329 329 328 327 326 326 325 324 324 323 322 317 320 319 319 316 317 317 317 315 314 311 307
331 330 331 330 329 329 328 329 329 329 329 331 332 331 331 331 330 328 329 331 329 328 328 326 326 325 324 324 323 323 323 321 321 320 318 315 313 309 307 306 305 305 305
331 331 331 330 329 328 326 327 328 330 330 331 331 331 328 328 328 329 329 328 328 327 327 326 325 325 325 324 323 323 324 325 325 323 321 316 314 312 308 306 305 304 302
332 331 331 330 329 326 324 325 327 330 331 331 330 328 327 328 328 328 328 327 327 327 326 326 325 326 324 322 319 324 324 324 324 321 317 314 312 307 303 302 301 299 295
332 331 330 330 328 325 324 325 327 329 330 331 329 331 330 330 327 328 326 326 326 326 326 326 326 325 326 324 324 325 326 327 323 319 318 316 313 309 304 299 296 293 292
327 328 329 328 327 324 325 325 328 330 330 331 332 330 330 329 326 327 327 325 325 325 325 326 326 325 326 327 326 326 325 324 323 323 320 317 314 310 307 302 294 292 291
332 330 327 326 326 326 326 326 328 327 329 328 330 329 328 325 326 325 326 327 322 323 326 326 326 327 327 327 323 323 324 324 325 323 319 318 316 313 313 308 304 300 298
Wind_Speed
13 13 13 14 14 14 14 13 13 12 12 13 15 17 16 18 18 14 16 13 15 14 14 13 13 13 17 21 24 25 29 31 28 25 22 20 18 15 14 17 17 14 13
13 15 14 14 15 16 15 13 12 12 13 13 13 15 16 16 18 18 16 12 12 14 15 16 13 14 17 21 26 31 36 34 29 25 21 20 18 15 17 18 16 15 12
15 16 15 15 16 16 16 14 12 13 13 13 14 14 15 15 14 14 12 11 11 12 16 16 14 15 19 27 31 38 38 31 31 28 26 23 21 21 19 17 16 15 13
16 16 15 16 16 16 15 16 14 13 13 14 12 12 13 12 12 10 11 11 12 12 11 14 14 16 23 34 36 33 33 33 33 32 30 27 23 22 20 18 17 16 15
16 17 16 17 13 15 16 15 14 13 13 10 10 11 11 10 10 10 11 11 12 11 12 10 14 17 24 35 36 33 33 33 33 35 34 28 24 23 20 20 18 17 15
15 16 16 12 13 13 14 14 12 12 11 12 11 11 11 10 9 11 11 10 11 11 11 10 9 13 22 37 37 35 34 34 33 33 32 27 26 22 22 21 20 18 15
14 16 13 14 12 15 14 13 12 13 12 11 9 7 9 9 9 10 10 9 9 9 9 8 11 13 23 15 32 29 33 34 34 34 28 28 25 24 22 22 19 17 15
13 14 13 11 12 14 13 14 14 12 11 13 10 11 6 6 10 10 10 9 8 9 9 10 15 17 18 14 16 31 35 36 37 34 30 27 26 25 24 21 19 16 15
10 10 10 11 12 14 12 14 13 12 12 11 11 5 4 5 9 9 11 10 10 10 10 12 19 15 17 29 30 12 26 34 36 33 31 30 27 25 22 19 19 17 13
7 7 9 10 11 12 13 11 10 11 11 11 9 10 7 2 7 5 8 9 10 10 9 11 18 19 20 28 24 32 37 37 36 34 33 29 27 24 21 20 17 14 13
5 6 8 10 11 11 10 8 8 10 9 8 8 7 6 7 6 5 6 5 6 8 7 10 18 22 25 25 28 32 42 39 38 37 32 26 23 24 22 18 17 15 12
6 8 8 8 9 7 6 7 8 9 7 6 8 6 6 7 8 4 7 7 5 6 11 15 17 21 25 28 29 36 39 41 38 34 27 24 24 21 20 18 16 13 11
6 8 7 7 6 6 6 7 9 8 7 6 8 9 4 2 1 4 11 7 3 5 6 9 18 23 24 24 31 42 45 42 38 30 25 24 22 20 19 17 14 11 9
6 7 7 6 5 5 7 8 8 8 7 5 7 8 6 3 5 5 11 14 5 3 5 7 15 24 29 41 45 45 40 38 32 26 23 22 21 19 18 15 12 10 9
8 6 6 6 6 5 6 7 7 8 7 6 7 8 7 6 5 7 11 18 13 4 3 8 6 25 40 44 42 42 37 32 28 25 22 20 18 17 17 15 12 9 7
8 7 6 5 5 6 4 4 6 7 6 8 7 5 2 3 6 7 13 12 13 13 3 6 15 28 40 40 39 37 31 30 24 20 19 18 17 16 14 12 10 7 6
10 7 6 4 4 4 3 3 4 5 5 7 8 6 6 8 9 11 12 11 12 15 9 15 32 37 42 43 32 33 30 27 23 20 18 17 17 15 14 11 8 6 5
9 9 7 5 4 3 3 4 5 5 7 7 6 7 9 11 11 11 9 13 15 20 23 22 31 38 34 36 34 31 27 24 23 17 16 16 14 12 11 9 7 6 5
9 9 8 5 4 4 5 5 6 7 8 8 8 9 10 12 13 11 12 16 21 30 29 27 27 32 33 35 33 29 25 23 18 18 14 13 11 10 8 7 6 4 2
9 9 7 6 6 5 5 6 7 8 8 9 9 9 11 13 15 14 15 18 25 27 28 25 30 30 27 30 29 30 24 22 15 13 13 11 9 8 8 9 10 11 12
10 10 10 9 7 7 6 7 8 9 9 8 10 9 10 11 13 13 15 18 25 25 24 28 24 23 24 25 23 22 24 19 16 15 18 17 16 17 17 16 15 12 9
11 11 10 9 8 7 10 10 9 10 10 10 11 13 13 14 14 13 16 22 26 27 23 24 25 22 22 24 27 27 24 21 12 13 18 16 14 14 12 14 12 8 6
10 10 10 9 8 11 13 11 11 9 10 11 12 15 14 15 14 20 20 21 25 27 26 28 26 23 26 27 33 21 21 19 17 19 19 17 13 14 13 13 8 5 4
9 8 11 11 11 10 12 11 9 9 10 11 12 14 15 17 17 19 22 24 23 24 26 30 34 33 30 29 22 19 16 17 20 18 14 14 13 13 11 10 6 3 3
9 8 10 11 11 12 9 10 8 10 12 12 13 14 17 18 22 25 28 26 24 23 22 29 26 28 26 20 19 19 17 20 17 15 12 13 13 12 10 8 7 5 4
11 11 12 13 15 11 9 10 8 13 12 14 15 15 20 21 21 25 22 20 21 23 26 27 27 17 21 23 20 16 19 15 15 12 12 10 16 14 8 9 8 1 1
Wind_Direction
251 255 259 258 258 257 254 253 259 260 260 251 244 241 233 227 229 228 232 240 244 242 242 246 251 241 225 210 206 194 175 167 166 163 161 154 153 155 155 151 158 162 161
248 253 255 257 254 255 251 248 248 258 258 255 242 238 229 223 219 224 236 237 247 243 241 238 246 239 221 196 198 173 167 165 163 167 161 161 158 164 175 162 168 162 158
246 251 255 257 255 254 248 243 244 247 252 248 244 228 221 217 221 225 235 236 238 250 241 234 239 230 211 191 177 172 173 175 173 175 168 168 163 175 169 162 155 149 145
247 251 248 249 250 247 241 238 233 238 246 245 236 227 220 215 215 225 231 229 234 237 232 236 237 227 199 177 174 173 171 171 175 176 173 165 172 175 164 153 146 143 142
246 246 244 251 242 237 235 231 236 240 241 241 233 218 210 212 218 219 221 225 234 229 222 227 238 223 206 193 178 173 178 179 177 176 166 167 173 171 158 147 143 141 142
249 242 240 240 240 234 234 233 232 238 242 232 218 209 204 207 212 215 217 220 214 214 217 216 214 209 206 188 180 175 172 174 172 165 168 167 170 165 153 145 145 142 142
251 242 230 242 233 229 226 235 232 235 229 220 196 196 200 202 206 210 209 207 201 199 197 196 171 176 185 158 181 164 167 167 165 167 163 165 163 156 149 146 139 147 152
243 232 226 221 218 221 227 230 228 227 224 207 196 189 181 183 200 201 197 192 191 191 181 177 166 167 155 168 174 176 170 166 161 160 162 158 157 151 146 144 147 152 158
240 232 220 218 215 220 224 228 224 221 215 204 206 208 197 190 160 189 192 183 186 180 176 179 172 173 168 148 168 191 171 161 156 150 154 153 153 148 141 149 155 152 156
236 232 217 211 208 212 225 220 221 218 207 194 190 220 255 168 183 166 180 180 181 172 175 173 166 168 168 180 190 183 179 163 153 148 152 155 152 145 155 159 155 154 160
225 207 204 197 211 219 215 209 194 207 203 203 189 190 213 192 188 195 152 158 132 158 165 161 157 163 174 178 171 170 167 157 151 154 154 152 145 154 159 156 160 161 158
197 192 194 203 213 203 191 186 188 204 211 205 212 206 199 214 186 176 145 140 123 124 157 150 161 165 170 172 173 169 157 148 153 148 139 147 158 155 154 160 159 160 161
176 181 181 189 188 183 171 176 189 202 219 222 211 197 197 207 211 183 152 125 114 97 109 121 149 150 160 172 164 148 141 146 145 142 146 155 153 157 157 158 161 160 163
177 158 174 176 183 176 169 182 191 200 212 207 173 183 226 238 237 175 153 149 123 102 109 123 166 152 154 137 137 139 141 142 143 143 152 151 156 158 157 154 154 162 169
151 161 164 146 136 149 155 171 188 196 199 162 148 166 212 250 204 156 163 161 147 141 120 141 115 136 140 138 144 137 143 147 146 149 148 153 156 158 157 154 164 167 170
161 161 161 139 133 145 151 171 176 183 172 150 177 229 205 170 138 141 154 150 152 116 117 124 131 147 137 131 138 141 143 141 142 144 147 159 156 155 154 159 161 169 172
164 164 162 142 130 139 159 165 164 147 148 164 170 177 154 146 127 132 133 136 126 133 110 130 131 130 133 139 144 138 140 139 142 147 153 154 153 159 158 168 169 180 192
165 166 163 139 134 154 163 150 147 149 145 132 141 156 162 149 138 148 154 151 143 144 129 118 130 131 135 140 141 141 138 136 134 137 148 152 157 162 165 169 180 196 226
163 162 162 143 149 147 139 138 132 123 133 135 148 147 147 155 140 145 162 149 141 131 137 124 127 124 127 138 133 133 133 128 134 135 148 146 150 161 167 179 195 203 172
152 153 147 141 133 125 125 129 126 125 129 136 138 142 136 145 149 149 140 138 139 134 136 133 126 128 133 133 131 129 123 127 128 138 134 141 149 151 148 139 127 125 123
142 139 135 131 129 124 124 125 123 123 127 122 115 109 116 140 154 153 136 136 140 140 129 139 132 128 130 134 134 134 127 136 135 131 121 116 113 108 110 117 118 114 104
139 142 138 131 126 121 141 133 124 124 124 120 113 104 108 117 128 136 141 144 141 139 127 134 135 138 138 134 139 139 136 138 126 145 137 129 132 123 122 123 114 104 91
135 135 130 130 122 133 143 137 124 122 121 126 120 121 122 120 126 133 134 146 150 146 140 143 134 136 134 146 146 153 153 156 144 147 139 130 135 118 115 115 109 89 66
136 143 134 139 137 142 145 141 131 135 129 128 130 128 127 121 135 127 127 130 119 140 151 151 149 152 155 158 153 152 156 125 133 148 148 135 147 133 129 121 109 77 54
135 144 152 142 146 147 145 146 149 146 139 128 124 123 118 109 121 120 136 113 114 123 147 160 156 158 161 158 159 150 146 148 156 162 181 154 159 146 147 141 122 98 98
120 129 138 156 152 152 158 158 148 139 135 127 126 115 125 120 133 126 118 122 117 130 135 151 158 162 168 164 160 165 169 167 163 163 175 167 163 158 167 181 184 156 24